GMT,Max TemperatureF,Mean TemperatureF,Min TemperatureF,Max Dew PointF,MeanDew PointF,Min DewpointF,Max Humidity, Mean Humidity, Min Humidity, Max Sea Level PressureIn, Mean Sea Level PressureIn, Min Sea Level PressureIn, Max VisibilityMiles, Mean VisibilityMiles, Min VisibilityMiles, Max Wind SpeedMPH, Mean Wind SpeedMPH, Max Gust SpeedMPH,PrecipitationIn, CloudCover, Events, WindDirDegrees
2012-2-1,39,36,30,32,30,28,93,81,70,30.57,30.47,30.36,6,6,6,16,12,,0.00,4,,71
2012-2-2,39,34,30,34,29,27,93,79,65,30.57,30.55,30.54,6,6,6,14,8,,0.00,4,,117
2012-2-3,44,38,33,45,35,27,100,84,75,30.60,30.58,30.54,6,6,6,14,7,,0.00,6,Rain,175
2012-2-4,48,44,39,48,44,36,100,96,81,30.54,30.39,30.24,6,6,2,21,10,,0.00,5,Rain,244
2012-2-5,50,44,39,50,41,34,100,92,81,30.45,30.41,30.36,6,5,1,14,8,,0.00,6,Rain,268
2012-2-6,50,48,46,50,48,46,100,98,93,30.57,30.51,30.45,6,6,2,15,10,,0.00,6,Rain,320
2012-2-7,46,45,44,46,44,43,100,96,87,30.60,30.58,30.24,6,5,1,14,10,,0.00,6,Fog-Rain,140
2012-2-8,44,43,42,43,42,39,100,96,81,30.63,30.61,30.57,6,5,1,17,12,,0.00,6,Rain,172
2012-2-9,48,45,42,48,46,43,100,100,93,30.63,30.59,30.51,6,2,0,13,9,,0.00,7,Fog-Rain,215
2012-2-10,51,48,44,50,48,45,100,99,88,30.51,30.47,30.45,6,5,0,9,6,,0.00,6,Fog-Rain,328
2012-2-11,46,45,44,46,45,45,100,100,100,30.54,30.48,30.45,6,2,0,13,7,,0.00,6,Fog-Rain,189
2012-2-12,48,45,41,45,43,41,100,92,76,30.66,30.60,30.54,6,5,2,13,8,,0.00,5,Rain,291
2012-2-13,48,44,39,45,41,37,100,90,76,30.66,30.57,30.48,6,6,2,29,12,43,0.00,5,Rain,320
2012-2-14,48,45,42,41,40,37,93,83,71,30.60,30.55,30.51,6,6,6,29,22,36,0.00,5,,330
2012-2-15,48,45,42,43,40,37,87,80,71,30.60,30.57,30.54,6,6,6,26,17,34,0.00,6,Rain,332
2012-2-16,51,46,41,46,42,37,93,85,71,30.57,30.46,30.36,6,6,6,15,9,,0.00,6,,270
2012-2-17,50,47,44,48,46,43,100,93,87,30.36,30.22,30.01,6,6,6,18,13,26,0.00,6,Rain,247
2012-2-18,46,40,35,46,38,30,100,84,61,30.21,29.96,29.77,6,6,4,26,17,38,0.00,4,Rain,284
2012-2-19,48,42,35,37,34,32,93,83,58,30.45,30.36,30.21,6,6,6,12,8,,0.00,4,Rain,277
2012-2-20,48,42,35,48,42,34,100,92,82,30.42,30.32,30.24,6,6,2,21,12,,0.00,6,Rain,220
2012-2-21,51,48,46,50,49,46,100,98,88,30.24,30.19,29.62,6,5,1,24,17,,0.00,7,Rain,214
2012-2-22,57,52,48,55,52,48,100,97,88,30.15,30.04,29.98,6,4,0,28,21,43,0.00,6,Fog-Rain,235
2012-2-23,55,52,50,52,51,48,100,97,88,30.30,30.23,30.15,6,6,6,18,11,,0.00,6,,238
2012-2-24,51,48,46,52,48,43,100,93,76,30.42,30.34,30.27,6,6,1,14,11,,0.00,6,Rain,301
2012-2-25,51,48,44,50,46,43,100,95,82,30.42,30.38,30.33,6,5,0,8,4,,0.00,6,Fog,303
2012-2-26,50,47,44,50,47,45,100,100,100,30.39,30.33,30.27,6,3,0,16,5,,0.00,6,Fog-Rain,217
2012-2-27,53,50,46,50,48,46,100,95,88,30.27,30.22,30.18,6,6,4,14,10,,0.00,6,,241
2012-2-28,51,48,44,48,46,45,100,92,76,30.24,30.21,30.18,6,6,6,13,7,,0.00,6,,216
2012-2-29,51,48,46,48,47,45,100,94,82,30.18,30.11,30.06,6,6,3,16,11,,0.00,6,,180